This is the latest recevied weather packets stored in our database for station/object DB0SWS-6. If no packets are shown the sender has not sent any weather packets the latest 10 day(s).
| Time | Temp. | Humidity | Pressure | Rain* | Wind** | Luminosity | Snow |
|---|---|---|---|---|---|---|---|
| 1777590209 | 11.67° C | 33% | 969.4 hPa | 0 mm | - | - | - |
| 1777588409 | 11.67° C | 33% | 969.2 hPa | 0 mm | - | - | - |
| 1777586609 | 12.22° C | 33% | 969.1 hPa | 0 mm | - | - | - |
| 1777584810 | 12.22° C | 31% | 969 hPa | 0 mm | - | - | - |
| 1777583009 | 12.22° C | 31% | 968.9 hPa | 0 mm | - | - | - |
| 1777581210 | 12.78° C | 30% | 968.8 hPa | 0 mm | - | - | - |
| 1777579410 | 12.78° C | 29% | 968.7 hPa | 0 mm | - | - | - |
| 1777577610 | 13.33° C | 29% | 968.4 hPa | 0 mm | - | - | - |
| 1777575809 | 13.89° C | 29% | 968.5 hPa | 0 mm | - | - | - |
| 1777574011 | 14.44° C | 29% | 968.3 hPa | 0 mm | - | - | - |
| 1777572210 | 15° C | 29% | 968.1 hPa | 0 mm | - | - | - |
| 1777570411 | 16.11° C | 26% | 968.2 hPa | 0 mm | - | - | - |
| 1777568609 | 16.67° C | 27% | 968.3 hPa | 0 mm | - | - | - |
| 1777566809 | 16.67° C | 25% | 968.3 hPa | 0 mm | - | - | - |
| 1777565010 | 17.22° C | 23% | 968.3 hPa | 0 mm | - | - | - |
| 1777563210 | 17.22° C | 22% | 968.3 hPa | 0 mm | - | - | - |
| 1777561409 | 17.22° C | 25% | 968.3 hPa | 0 mm | - | - | - |
| 1777559611 | 17.22° C | 26% | 968.5 hPa | 0 mm | - | - | - |
| 1777557810 | 16.67° C | 26% | 968.7 hPa | 0 mm | - | - | - |
| 1777556010 | 16.67° C | 28% | 968.9 hPa | 0 mm | - | - | - |
| 1777554209 | 16.11° C | 30% | 968.8 hPa | 0 mm | - | - | - |
| 1777552410 | 16.11° C | 31% | 969.2 hPa | 0 mm | - | - | - |
| 1777550610 | 15.56° C | 33% | 969.1 hPa | 0 mm | - | - | - |
| 1777548810 | 15.56° C | 33% | 969.1 hPa | 0 mm | - | - | - |
| 1777547009 | 15.56° C | 32% | 969.3 hPa | 0 mm | - | - | - |
* Rain latest hour (hover to see other rain measurements)
** Current wind speed in m/s (hover to see current wind gust speed)